Date String (YYYY-MM-DD hh:mm:ss) UTC,Instrument flags,Ambient pressure (hPa),Sample flow (lpm),Bypass flow (lpm),Sample temperature (°C),Ambient temperature (°C),ASC tube jacket temperature (°C),LED temperature (°C),Box temperature (°C),Sample RH (%),Span deviation,Mass concentration (μg/m³),Mass concentration (μg/m³),Mass concentration (μg/m³)
DateTimeUTC,F1_M11,P_M11,Q1_M11,Q2_M11,T1_M11,T2_M11,T3_M11,T4_M11,T5_M11,U1_M11,ZSPAN_M11,X0_M11,X2_M11,X1_M11
2022-12-03 10:00:00,,0830.9,5.00,0.00,21.7,20.4,00.0,30.6,23.4,07.2,0000.0,0014.34,0003.50,0001.78
2022-12-03 10:01:00,,0831.0,5.00,0.00,21.7,20.3,00.0,30.6,23.4,07.2,0000.0,0013.55,0003.47,0001.78
2022-12-03 10:02:00,,0831.0,5.00,0.00,21.6,20.2,00.0,30.6,23.3,07.3,0000.0,0013.48,0003.45,0001.80
2022-12-03 10:03:00,,0831.0,4.99,0.00,21.6,20.1,00.0,30.6,23.3,07.3,0000.0,0012.60,0003.49,0001.83
2022-12-03 10:04:00,,0831.0,5.00,0.00,21.6,20.1,00.0,30.5,23.3,07.3,0000.0,0011.95,0003.52,0001.84
2022-12-03 10:05:00,,0831.1,5.01,0.00,21.7,20.9,00.0,30.5,23.5,07.2,0000.0,0012.07,0003.48,0001.85
2022-12-03 10:06:00,,0831.0,5.00,0.00,21.8,21.9,00.0,30.5,23.7,07.2,0000.0,0011.70,0003.48,0001.86
2022-12-03 10:07:00,,0831.0,4.99,0.00,21.8,21.9,00.0,30.5,23.8,07.1,0000.0,0011.63,0003.48,0001.85
2022-12-03 10:08:00,,0831.0,4.99,0.00,21.9,21.5,00.0,30.6,23.8,07.1,0000.0,0011.55,0003.49,0001.85
2022-12-03 10:09:00,,0831.0,5.00,0.00,21.8,21.2,00.0,30.6,23.7,07.1,0000.0,0011.56,0003.50,0001.87
2022-12-03 10:10:00,,0831.0,5.00,0.00,21.8,20.9,00.0,30.6,23.6,07.1,0000.0,0011.68,0003.54,0001.88
2022-12-03 10:11:00,,0831.0,5.01,0.00,21.8,20.6,00.0,30.6,23.6,07.1,0000.0,0011.94,0003.54,0001.87
2022-12-03 10:12:00,,0831.1,5.01,0.00,21.8,20.5,00.0,30.6,23.5,07.0,0000.0,0011.79,0003.50,0001.85
2022-12-03 10:13:00,,0831.1,5.00,0.00,21.8,20.3,00.0,30.7,23.5,07.1,0000.0,0012.43,0003.49,0001.84
2022-12-03 10:14:00,,0831.0,4.99,0.00,21.7,20.2,00.0,30.7,23.4,07.1,0000.0,0012.39,0003.50,0001.82
2022-12-03 10:15:00,,0831.1,5.00,0.00,21.7,20.1,00.0,30.6,23.4,07.1,0000.0,0012.05,0003.43,0001.82
2022-12-03 10:16:00,,0831.1,5.00,0.00,21.7,20.0,00.0,30.6,23.4,07.1,0000.0,0012.50,0003.42,0001.82
2022-12-03 10:17:00,,0831.2,5.02,0.00,21.7,20.5,00.0,30.6,23.4,07.2,0000.0,0013.50,0003.46,0001.83
2022-12-03 10:18:00,,0831.2,5.01,0.00,21.8,21.6,00.0,30.5,23.7,07.1,0000.0,0014.26,0003.51,0001.83
2022-12-03 10:19:00,,0831.2,5.00,0.00,21.9,22.0,00.0,30.6,23.9,07.1,0000.0,0014.41,0003.48,0001.82
2022-12-03 10:20:00,,0831.1,4.99,0.00,21.9,21.6,00.0,30.6,23.8,07.1,0000.0,0015.32,0003.44,0001.82
2022-12-03 10:21:00,,0831.1,4.99,0.00,21.9,21.3,00.0,30.7,23.7,07.1,0000.0,0015.66,0003.46,0001.83
2022-12-03 10:22:00,,0831.2,5.01,0.00,21.9,21.0,00.0,30.7,23.6,07.1,0000.0,0014.89,0003.48,0001.85
2022-12-03 10:23:00,,0831.2,5.01,0.00,21.8,20.7,00.0,30.7,23.6,07.1,0000.0,0015.13,0003.50,0001.88
2022-12-03 10:24:00,,0831.2,5.00,0.00,21.8,20.5,00.0,30.7,23.6,07.1,0000.0,0014.27,0003.51,0001.90
2022-12-03 10:25:00,,0831.2,5.00,0.00,21.8,20.3,00.0,30.7,23.5,07.1,0000.0,0015.05,0003.48,0001.91
2022-12-03 10:26:00,,0831.2,5.00,0.00,21.8,20.3,00.0,30.7,23.5,07.1,0000.0,0016.16,0003.50,0001.92
2022-12-03 10:27:00,,0831.2,5.00,0.00,21.7,20.2,00.0,30.7,23.5,07.1,0000.0,0017.11,0003.49,0001.91
2022-12-03 10:28:00,,0831.2,5.00,0.00,21.7,20.2,00.0,30.7,23.5,07.1,0000.0,0017.21,0003.47,0001.91
2022-12-03 10:29:00,,0831.2,5.01,0.00,21.7,20.4,00.0,30.6,23.5,07.2,0000.0,0016.50,0003.42,0001.91
2022-12-03 10:30:00,,0831.2,5.01,0.00,21.8,21.5,00.0,30.6,23.7,07.1,0000.0,0016.93,0003.49,0001.92
2022-12-03 10:31:00,,0831.3,4.99,0.00,21.9,22.1,00.0,30.6,23.9,07.1,0000.0,0016.31,0003.50,0001.92
2022-12-03 10:32:00,,0831.3,4.99,0.00,22.0,21.9,00.0,30.7,23.9,07.0,0000.0,0016.85,0003.50,0001.91
2022-12-03 10:33:00,,0831.2,5.00,0.00,22.0,21.5,00.0,30.7,23.8,07.0,0000.0,0017.53,0003.51,0001.89
2022-12-03 10:34:00,,0831.2,5.00,0.00,21.9,21.2,00.0,30.7,23.7,07.0,0000.0,0017.69,0003.50,0001.87
2022-12-03 10:35:00,,0831.2,5.00,0.00,21.9,20.9,00.0,30.7,23.7,07.0,0000.0,0017.90,0003.52,0001.85
2022-12-03 10:36:00,,0831.1,5.00,0.00,21.9,20.7,00.0,30.8,23.6,07.0,0000.0,0017.85,0003.59,0001.82
2022-12-03 10:37:00,,0831.2,5.01,0.00,21.9,20.5,00.0,30.8,23.6,07.0,0000.0,0016.97,0003.59,0001.81
2022-12-03 10:38:00,,0831.2,5.00,0.00,21.8,20.3,00.0,30.8,23.6,07.0,0000.0,0015.75,0003.57,0001.78
2022-12-03 10:39:00,,0831.2,5.01,0.00,21.8,20.1,00.0,30.7,23.5,07.1,0000.0,0013.79,0003.53,0001.75
2022-12-03 10:40:00,,0831.2,5.01,0.00,21.8,20.0,00.0,30.7,23.5,07.1,0000.0,0012.92,0003.48,0001.71
2022-12-03 10:41:00,,0831.2,5.00,0.00,21.8,20.1,00.0,30.7,23.5,07.1,0000.0,0013.24,0003.43,0001.66
2022-12-03 10:42:00,,0831.2,4.99,0.00,21.8,21.1,00.0,30.7,23.6,07.1,0000.0,0012.77,0003.40,0001.64
2022-12-03 10:43:00,,0831.2,5.00,0.00,21.9,22.0,00.0,30.6,23.8,07.1,0000.0,0012.07,0003.37,0001.61
2022-12-03 10:44:00,,0831.2,4.99,0.00,22.0,21.9,00.0,30.7,23.9,07.1,0000.0,0012.62,0003.31,0001.59
2022-12-03 10:45:00,,0831.2,4.99,0.00,22.0,21.5,00.0,30.7,23.8,07.1,0000.0,0012.93,0003.26,0001.57
2022-12-03 10:46:00,,0831.2,5.01,0.00,21.9,21.2,00.0,30.8,23.7,07.1,0000.0,0012.64,0003.19,0001.55
2022-12-03 10:47:00,,0831.2,5.01,0.00,21.9,20.9,00.0,30.8,23.7,07.1,0000.0,0011.57,0003.12,0001.54
2022-12-03 10:48:00,,0831.2,5.00,0.00,21.9,20.7,00.0,30.8,23.7,07.1,0000.0,0011.20,0003.06,0001.52
2022-12-03 10:49:00,,0831.2,4.99,0.00,21.9,20.5,00.0,30.8,23.6,07.1,0000.0,0011.15,0003.07,0001.51
2022-12-03 10:50:00,,0831.2,4.99,0.00,21.8,20.3,00.0,30.8,23.5,07.1,0000.0,0011.34,0003.06,0001.51
2022-12-03 10:51:00,,0831.2,5.00,0.00,21.8,20.1,00.0,30.8,23.5,07.1,0000.0,0011.75,0003.03,0001.51
2022-12-03 10:52:00,,0831.2,5.01,0.00,21.8,20.1,00.0,30.7,23.5,07.1,0000.0,0011.17,0002.92,0001.50
2022-12-03 10:53:00,,0831.2,5.00,0.00,21.8,20.4,00.0,30.7,23.5,07.1,0000.0,0010.41,0002.79,0001.49
2022-12-03 10:54:00,,0831.2,5.01,0.00,21.9,21.4,00.0,30.7,23.7,07.1,0000.0,0010.14,0002.69,0001.47
2022-12-03 10:55:00,,0831.2,5.00,0.00,22.0,22.0,00.0,30.7,23.9,07.1,0000.0,0009.43,0002.57,0001.45
2022-12-03 10:56:00,,0831.2,4.99,0.00,22.0,21.7,00.0,30.7,23.9,07.1,0000.0,0008.55,0002.56,0001.45
2022-12-03 10:57:00,,0831.2,5.00,0.00,22.0,21.3,00.0,30.8,23.8,07.1,0000.0,0009.62,0002.61,0001.43
2022-12-03 10:58:00,,0831.2,5.01,0.00,22.0,21.0,00.0,30.8,23.8,07.1,0000.0,0009.68,0002.59,0001.43
2022-12-03 10:59:00,,0831.2,5.00,0.00,21.9,20.7,00.0,30.8,23.7,07.1,0000.0,0009.89,0002.59,0001.42
